Fecha, hora, temperatura, viento dirección y velocidad, humedad y presión.

  • 23-08-2019 14:00:00 | 23.00°C | Sudeste |24.00 km/h | 74.00% | 0.00 hPa
  • 23-08-2019 13:00:00 | 22.30°C | Sudeste |22.00 km/h | 75.00% | 0.00 hPa
  • 23-08-2019 12:00:00 | 22.00°C | Sudeste |21.00 km/h | 68.00% | 0.00 hPa
  • 23-08-2019 11:00:00 | 21.60°C | Este |20.00 km/h | 72.00% | 0.00 hPa
  • 23-08-2019 10:00:00 | 21.20°C | Este |18.00 km/h | 71.00% | 0.00 hPa
  • 23-08-2019 09:00:00 | 19.70°C | Sudeste |22.00 km/h | 82.00% | 0.00 hPa
  • 23-08-2019 08:00:00 | 18.70°C | Sudeste |22.00 km/h | 76.00% | 0.00 hPa
  • 23-08-2019 07:00:00 | 19.10°C | Sudeste |23.00 km/h | 79.00% | 0.00 hPa
  • 23-08-2019 06:00:00 | 18.40°C | Sudeste |23.00 km/h | 86.00% | 0.00 hPa
  • 23-08-2019 05:00:00 | 18.40°C | Sudeste |24.00 km/h | 86.00% | 0.00 hPa
  • 23-08-2019 04:00:00 | 18.70°C | Este |26.00 km/h | 91.00% | 0.00 hPa
  • 23-08-2019 03:00:00 | 19.20°C | Este |22.00 km/h | 92.00% | 0.00 hPa
  • 23-08-2019 02:00:00 | 19.30°C | Este |28.00 km/h | 92.00% | 0.00 hPa
  • 23-08-2019 01:00:00 | 19.50°C | Este |25.00 km/h | 92.00% | 0.00 hPa
  • 23-08-2019 00:00:00 | 19.60°C | Este |25.00 km/h | 92.00% | 0.00 hPa
  • 22-08-2019 23:00:00 | 19.90°C | Este |30.00 km/h | 91.00% | 0.00 hPa
  • 22-08-2019 22:00:00 | 19.90°C | Este |27.00 km/h | 91.00% | 0.00 hPa
  • 22-08-2019 21:00:00 | 20.30°C | Este |31.00 km/h | 90.00% | 0.00 hPa
  • 22-08-2019 20:00:00 | 20.90°C | Este |31.00 km/h | 88.00% | 0.00 hPa
  • 22-08-2019 19:00:00 | 21.70°C | Este |27.00 km/h | 87.00% | 0.00 hPa
  • 22-08-2019 18:00:00 | 22.40°C | Este |25.00 km/h | 84.00% | 0.00 hPa
  • 22-08-2019 17:00:00 | 22.10°C | Este |24.00 km/h | 84.00% | 0.00 hPa
  • 22-08-2019 16:00:00 | 23.10°C | Este |26.00 km/h | 83.00% | 0.00 hPa
  • 22-08-2019 15:00:00 | 22.90°C | Este |26.00 km/h | 82.00% | 0.00 hPa
    • Información sobre el estado de las mareas, altura de la marejada, temperatura del agua y otros datos de Gijón en Asturias.

      Surf Gijón